TimeCDT,TemperatureF,Dew PointF,Humidity,Sea Level PressureIn,VisibilityMPH,Wind Direction,Wind SpeedMPH,Gust SpeedMPH,PrecipitationIn,Events,Conditions,WindDirDegrees,DateUTC
12:09 AM,32.0,30.2,93,29.87,10.0,Calm,Calm,-,N/A,,Overcast,0,2012-10-10 05:09:00
12:29 AM,32.0,30.2,93,29.87,10.0,Calm,Calm,-,N/A,,Overcast,0,2012-10-10 05:29:00
12:49 AM,32.0,30.2,93,29.87,10.0,Calm,Calm,-,N/A,,Overcast,0,2012-10-10 05:49:00
1:09 AM,30.2,30.2,100,29.87,10.0,Calm,Calm,-,N/A,,Overcast,0,2012-10-10 06:09:00
1:29 AM,30.2,30.2,100,29.88,10.0,Calm,Calm,-,N/A,,Overcast,0,2012-10-10 06:29:00
1:49 AM,30.2,30.2,100,29.88,10.0,WSW,4.6,-,N/A,,Overcast,250,2012-10-10 06:49:00
2:09 AM,30.2,30.2,100,29.89,10.0,Calm,Calm,-,N/A,,Overcast,0,2012-10-10 07:09:00
2:29 AM,30.2,30.2,100,29.89,10.0,Calm,Calm,-,N/A,,Overcast,0,2012-10-10 07:29:00
2:49 AM,30.2,30.2,100,29.89,10.0,Calm,Calm,-,N/A,,Overcast,0,2012-10-10 07:49:00
3:09 AM,30.2,30.2,100,29.89,10.0,Calm,Calm,-,N/A,,Overcast,0,2012-10-10 08:09:00
3:29 AM,30.2,30.2,100,29.89,10.0,Calm,Calm,-,N/A,,Overcast,0,2012-10-10 08:29:00
3:49 AM,30.2,30.2,100,29.89,10.0,West,4.6,-,N/A,,Overcast,260,2012-10-10 08:49:00
4:09 AM,30.2,30.2,100,29.90,10.0,West,5.8,-,N/A,,Overcast,260,2012-10-10 09:09:00
4:29 AM,30.2,28.4,93,29.90,10.0,West,3.5,-,N/A,,Overcast,270,2012-10-10 09:29:00
4:49 AM,30.2,28.4,93,29.91,10.0,West,4.6,-,N/A,,Overcast,270,2012-10-10 09:49:00
5:09 AM,30.2,28.4,93,29.91,10.0,West,5.8,-,N/A,,Overcast,260,2012-10-10 10:09:00
5:29 AM,30.2,28.4,93,29.92,10.0,West,5.8,-,N/A,,Overcast,260,2012-10-10 10:29:00
5:49 AM,30.2,28.4,93,29.92,10.0,West,3.5,-,N/A,,Overcast,260,2012-10-10 10:49:00
6:09 AM,28.4,28.4,100,29.92,10.0,West,3.5,-,N/A,,Mostly Cloudy,270,2012-10-10 11:09:00
6:29 AM,28.4,28.4,100,29.93,10.0,WSW,3.5,-,N/A,,Mostly Cloudy,250,2012-10-10 11:29:00
6:49 AM,26.6,26.6,100,29.94,10.0,West,3.5,-,N/A,,Scattered Clouds,270,2012-10-10 11:49:00
7:29 AM,26.6,26.6,100,29.94,10.0,Calm,Calm,-,N/A,,Scattered Clouds,0,2012-10-10 12:29:00
7:49 AM,26.6,26.6,100,29.94,10.0,West,3.5,-,N/A,,Mostly Cloudy,260,2012-10-10 12:49:00
8:09 AM,26.6,26.6,100,29.94,10.0,WSW,3.5,-,N/A,,Scattered Clouds,250,2012-10-10 13:09:00
8:29 AM,28.4,26.6,93,29.95,10.0,West,3.5,-,N/A,,Scattered Clouds,270,2012-10-10 13:29:00
8:49 AM,28.4,28.4,100,29.95,10.0,West,4.6,-,N/A,,Mostly Cloudy,260,2012-10-10 13:49:00
9:09 AM,30.2,30.2,100,29.95,10.0,WSW,4.6,-,N/A,,Mostly Cloudy,250,2012-10-10 14:09:00
9:29 AM,33.8,33.8,100,29.95,10.0,West,3.5,-,N/A,,Mostly Cloudy,270,2012-10-10 14:29:00
9:49 AM,33.8,32.0,93,29.95,10.0,WSW,4.6,-,N/A,,Mostly Cloudy,250,2012-10-10 14:49:00
10:09 AM,37.4,37.4,100,29.95,10.0,WSW,5.8,-,N/A,,Scattered Clouds,250,2012-10-10 15:09:00
10:29 AM,39.2,37.4,93,29.95,10.0,West,4.6,-,N/A,,Mostly Cloudy,270,2012-10-10 15:29:00
10:49 AM,39.2,37.4,93,29.95,10.0,West,8.1,-,N/A,,Scattered Clouds,280,2012-10-10 15:49:00
11:09 AM,39.2,37.4,93,29.96,10.0,WSW,5.8,-,N/A,,Scattered Clouds,250,2012-10-10 16:09:00
11:29 AM,39.2,37.4,93,29.96,10.0,West,5.8,-,N/A,,Overcast,270,2012-10-10 16:29:00
11:49 AM,39.2,37.4,93,29.96,10.0,West,5.8,-,N/A,,Overcast,270,2012-10-10 16:49:00
12:09 PM,39.2,39.2,100,29.95,10.0,West,5.8,-,N/A,,Overcast,260,2012-10-10 17:09:00
12:29 PM,39.2,37.4,93,29.95,10.0,WSW,5.8,-,N/A,,Mostly Cloudy,250,2012-10-10 17:29:00
12:49 PM,39.2,37.4,93,29.95,10.0,WSW,6.9,-,N/A,,Mostly Cloudy,240,2012-10-10 17:49:00
1:09 PM,39.2,37.4,93,29.95,10.0,SW,8.1,-,N/A,,Overcast,220,2012-10-10 18:09:00
1:29 PM,37.4,35.6,93,29.95,10.0,SW,5.8,-,N/A,,Overcast,230,2012-10-10 18:29:00
1:49 PM,39.2,37.4,93,29.94,10.0,West,4.6,-,N/A,,Overcast,270,2012-10-10 18:49:00
2:09 PM,41.0,39.2,93,29.93,10.0,West,5.8,-,N/A,,Overcast,270,2012-10-10 19:09:00
2:29 PM,42.8,37.4,81,29.93,10.0,West,8.1,-,N/A,,Overcast,260,2012-10-10 19:29:00
2:49 PM,42.8,39.2,87,29.93,10.0,WSW,4.6,-,N/A,,Scattered Clouds,250,2012-10-10 19:49:00
3:09 PM,42.8,39.2,87,29.93,10.0,WSW,9.2,-,N/A,,Scattered Clouds,250,2012-10-10 20:09:00
3:29 PM,41.0,37.4,87,29.93,10.0,WNW,3.5,-,N/A,,Mostly Cloudy,290,2012-10-10 20:29:00
3:49 PM,41.0,33.8,76,29.93,10.0,WSW,6.9,-,N/A,,Overcast,250,2012-10-10 20:49:00
4:09 PM,39.2,35.6,87,29.92,10.0,WSW,6.9,-,N/A,,Overcast,250,2012-10-10 21:09:00
4:29 PM,39.2,30.2,70,29.92,10.0,SW,3.5,-,N/A,,Overcast,220,2012-10-10 21:29:00
4:49 PM,39.2,33.8,81,29.91,10.0,WSW,4.6,-,N/A,,Overcast,240,2012-10-10 21:49:00
5:09 PM,39.2,30.2,70,29.91,10.0,Calm,Calm,-,N/A,,Overcast,0,2012-10-10 22:09:00
5:29 PM,39.2,26.6,61,29.91,10.0,Calm,Calm,-,N/A,,Mostly Cloudy,0,2012-10-10 22:29:00
5:49 PM,39.2,26.6,61,29.90,10.0,Calm,Calm,-,N/A,,Overcast,0,2012-10-10 22:49:00
6:09 PM,37.4,33.8,87,29.91,10.0,WSW,8.1,-,N/A,,Overcast,250,2012-10-10 23:09:00
6:49 PM,37.4,30.2,75,29.91,10.0,WSW,5.8,-,N/A,,Drizzle,240,2012-10-10 23:49:00
7:09 PM,35.6,30.2,81,29.91,10.0,SSW,3.5,-,N/A,,Overcast,210,2012-10-11 00:09:00
7:29 PM,35.6,30.2,81,29.91,10.0,South,3.5,-,N/A,,Overcast,180,2012-10-11 00:29:00
7:49 PM,35.6,30.2,81,29.91,10.0,Calm,Calm,-,N/A,,Overcast,0,2012-10-11 00:49:00
8:09 PM,35.6,32.0,87,29.92,10.0,SW,3.5,-,N/A,,Drizzle,230,2012-10-11 01:09:00
8:29 PM,35.6,32.0,87,29.92,5.0,Calm,Calm,-,N/A,Rain,Rain,0,2012-10-11 01:29:00
8:49 PM,35.6,32.0,87,29.92,7.0,SW,3.5,-,N/A,,Drizzle,220,2012-10-11 01:49:00
9:09 PM,35.6,32.0,87,29.92,7.0,SW,3.5,-,N/A,,Drizzle,220,2012-10-11 02:09:00
9:29 PM,33.8,32.0,93,29.92,5.0,WSW,4.6,-,N/A,,Drizzle,250,2012-10-11 02:29:00
9:49 PM,33.8,32.0,93,29.92,5.0,SW,3.5,-,N/A,,Drizzle,230,2012-10-11 02:49:00
10:09 PM,33.8,32.0,93,29.92,5.0,SW,3.5,-,0.01,,Drizzle,230,2012-10-11 03:09:00
10:29 PM,33.8,30.2,87,29.92,10.0,South,3.5,-,0.01,,Overcast,190,2012-10-11 03:29:00
10:49 PM,33.8,30.2,87,29.92,7.0,SSW,3.5,-,0.01,,Light Drizzle,210,2012-10-11 03:49:00
11:09 PM,33.8,30.2,87,29.92,10.0,Calm,Calm,-,N/A,Rain,Light Rain,0,2012-10-11 04:09:00
11:29 PM,33.8,30.2,87,29.91,10.0,Calm,Calm,-,N/A,Rain,Light Rain,0,2012-10-11 04:29:00
11:49 PM,33.8,30.2,87,29.91,10.0,South,3.5,-,N/A,,Light Drizzle,190,2012-10-11 04:49:00